Location: St. Louis
(38.6270°N, 90.1994°W)
Time: 10:12:32
(UTC-06:00)

Tiros 1 despin weight - Pass Details

Date: 30 November 2021
Orbit: 592 x 641 km, 48.2° (Epoch: 25 January)

Event Time Altitude Azimuth Distance (km) Brightness Sun altitude
Rises 18:10:28 0° 301° (WNW) 2,825 ? -17.3°
Reaches altitude 10° 18:13:01 10° 313° (NW) 1,924 ? -17.8°
Maximum altitude 18:16:49 28° 13° (NNE) 1,138 ? -18.5°
Enters shadow 18:17:20 27° 25° (NNE) 1,157 ? -18.6°
